Location: Malvern Link
(52.1333°N, 2.3000°W)
Time: 16:26:33
(UTC+00:00)

Cosmos 1634 Rocket - Pass Details

Date: 05 December 2021
Orbit: 959 x 993 km, 82.9° (Epoch: 23 January)

Event Time Altitude Azimuth Distance (km) Brightness Sun altitude
Rises 02:39:43 0° 355° (N) 3,712 7.3 -47.3°
Enters shadow 02:39:46 - 355° (N) 3,697 7.3 -47.3°
Exits shadow 02:45:40 15° 37° (NE) 2,382 6.4 -46.5°
Maximum altitude 02:47:14 17° 54° (NE) 2,298 6.4 -46.3°
Drops below altitude 10° 02:51:04 10° 92° (E) 2,730 6.8 -45.8°
Sets 02:54:38 0° 113° (ESE) 3,665 7.4 -45.3°
